This is the latest recevied weather packets stored in our database for station/object OK1OBR-13. If no packets are shown the sender has not sent any weather packets the latest 1 day(s).
| Time | Temp. | Humidity | Pressure | Rain* | Wind** | Luminosity | Snow |
|---|---|---|---|---|---|---|---|
| 1777950541 | 12.22° C | 59% | 931.8 hPa | 0 mm | 0.45 m/s, 85° | - | - |
| 1777950481 | 12.22° C | 59% | 931.9 hPa | 0 mm | 0.45 m/s, 92° | - | - |
| 1777950421 | 12.78° C | 60% | 931.9 hPa | 0 mm | 0.45 m/s, 84° | - | - |
| 1777950361 | 12.78° C | 59% | 931.7 hPa | 0 mm | 0.45 m/s, 61° | - | - |
| 1777950301 | 12.78° C | 59% | 931.8 hPa | 0 mm | 0.45 m/s, 55° | - | - |
| 1777950241 | 12.78° C | 58% | 931.9 hPa | 0 mm | 0.45 m/s, 50° | - | - |
| 1777950181 | 12.78° C | 58% | 932 hPa | 0 mm | 0.45 m/s, 85° | - | - |
| 1777950121 | 12.78° C | 58% | 931.7 hPa | 0 mm | 0.45 m/s, 100° | - | - |
| 1777950061 | 12.78° C | 58% | 932 hPa | 0 mm | 0.89 m/s, 113° | - | - |
| 1777950001 | 12.78° C | 58% | 931.7 hPa | 0 mm | 0.89 m/s, 109° | - | - |
| 1777949941 | 12.78° C | 59% | 931.9 hPa | 0 mm | 0.89 m/s, 108° | - | - |
| 1777949882 | 12.78° C | 59% | 931.9 hPa | 0 mm | 0.89 m/s, 111° | - | - |
| 1777949821 | 12.78° C | 58% | 931.8 hPa | 0 mm | 0.89 m/s, 113° | - | - |
| 1777949761 | 12.78° C | 58% | 931.9 hPa | 0 mm | 0.89 m/s, 114° | - | - |
| 1777949701 | 12.78° C | 58% | 931.9 hPa | 0 mm | 0.89 m/s, 115° | - | - |
| 1777949640 | 12.78° C | 58% | 931.9 hPa | 0 mm | 0.45 m/s, 110° | - | - |
| 1777949581 | 12.78° C | 57% | 932 hPa | 0 mm | 0.89 m/s, 115° | - | - |
| 1777949521 | 12.78° C | 57% | 931.9 hPa | 0 mm | 0.89 m/s, 106° | - | - |
| 1777949461 | 13.33° C | 57% | 931.9 hPa | 0 mm | 0.89 m/s, 114° | - | - |
| 1777949402 | 13.33° C | 57% | 932.1 hPa | 0 mm | 0.89 m/s, 122° | - | - |
| 1777949341 | 13.33° C | 56% | 932 hPa | 0 mm | 0.89 m/s, 116° | - | - |
| 1777949281 | 13.33° C | 56% | 932 hPa | 0 mm | 0.89 m/s, 123° | - | - |
| 1777949222 | 13.33° C | 56% | 932.1 hPa | 0 mm | 0.89 m/s, 93° | - | - |
| 1777949161 | 13.33° C | 56% | 931.8 hPa | 0 mm | 0.89 m/s, 104° | - | - |
| 1777949102 | 13.33° C | 56% | 932 hPa | 0 mm | 0.89 m/s, 120° | - | - |
* Rain since midnight (hover to see other rain measurements)
** Current wind speed in m/s (hover to see current wind gust speed)